User: anonymous   Login
Location: Unspecified
(22.6800°N, 112.2000°E)
Time: 18:12:05
(UTC+08:00)
Language:

A-11 Canister half - Orbit

View from above orbital plane
View from above orbital plane
View from above satellite
View from above satellite

Ground track
Ground track

The orbit data is extracted from the following two-line orbital elements,

1 00053U 60009E   21211.69300525 -.00000006  00000-0  77352-3 0  9994
2 00053  47.2774  80.0342 0097086 207.5114 152.0514 12.17256506718298
Epoch (UTC): 30 July 2021 16:37:55
Eccentricity: 0.0097086
inclination: 47.2774°
perigee height: 1527 km
apogee height: 1682 km
right ascension of ascending node: 80.0342°
argument of perigee: 207.5114°
revolutions per day: 12.17256506
mean anomaly at epoch: 152.0514°
orbit number at epoch: 71829

The dashed part of the orbit path shows where the satellite is in the earth's shadow,  

DLR